ANA1655 RJOO-RJSK

Flight info

Callsign ANA1655
Flight time 0h 58m
Altitude 39000
Route MINAC YOKKA KCC Y312 YAYOI
Aircraft B736/M-SDE2E3FGHIRWXY/LB1

Departure

Time 2026-04-24 12:24
Airport Osaka Itami International Airport (RJOO)

Arrival

Time 2026-04-24 13:23
Airport Akita Airport (RJSK)
Time Latitude Longitude Altitude Speed Heading
2026-04-24 12:03 34.78701 135.44331 45 ft 0 kts 30°
2026-04-24 12:17 34.78698 135.44330 45 ft 0 kts 31°
2026-04-24 12:17 34.78686 135.44321 43 ft 2 kts 29°
2026-04-24 12:17 34.78673 135.44312 42 ft 2 kts 30°
2026-04-24 12:18 34.78661 135.44302 42 ft 2 kts 25°
2026-04-24 12:18 34.78647 135.44295 42 ft 2 kts 30°
2026-04-24 12:18 34.78635 135.44284 42 ft 2 kts 28°
2026-04-24 12:18 34.78625 135.44278 42 ft 0 kts 39°
2026-04-24 12:19 34.78622 135.44272 42 ft 1 kts 100°
2026-04-24 12:19 34.78627 135.44264 40 ft 2 kts 150°
2026-04-24 12:19 34.78635 135.44257 39 ft 0 kts 135°
2026-04-24 12:19 34.78638 135.44253 39 ft 0 kts 134°
2026-04-24 12:22 34.78640 135.44251 38 ft 0 kts 133°
2026-04-24 12:22 34.78630 135.44263 40 ft 4 kts 133°
2026-04-24 12:22 34.78595 135.44307 45 ft 9 kts 136°
2026-04-24 12:22 34.78536 135.44339 45 ft 10 kts 172°
2026-04-24 12:23 34.78477 135.44336 43 ft 1 kts 180°
2026-04-24 12:23 34.78450 135.44334 43 ft 5 kts 180°
2026-04-24 12:23 34.78407 135.44334 41 ft 8 kts 180°
2026-04-24 12:23 34.78354 135.44295 40 ft 10 kts 280°
2026-04-24 12:24 34.78425 135.44202 38 ft 34 kts 315°
2026-04-24 12:24 34.78794 135.43758 25 ft 110 kts 314°
2026-04-24 12:24 34.79430 135.42960 324 ft 140 kts 315°
2026-04-24 12:24 34.80050 135.42070 957 ft 147 kts 303°
2026-04-24 12:25 34.80222 135.40778 1521 ft 168 kts 263°
2026-04-24 12:25 34.79707 135.39461 2014 ft 183 kts 234°
2026-04-24 12:25 34.78620 135.38536 2442 ft 199 kts 193°
2026-04-24 12:25 34.77268 135.38719 2887 ft 202 kts 144°
2026-04-24 12:26 34.76353 135.39981 3336 ft 205 kts 106°
2026-04-24 12:26 34.76152 135.41673 3863 ft 209 kts 76°
2026-04-24 12:26 34.76718 135.43337 4395 ft 220 kts 58°
2026-04-24 12:26 34.77524 135.44972 4924 ft 240 kts 58°
2026-04-24 12:27 34.78357 135.46799 5703 ft 256 kts 61°
2026-04-24 12:27 34.79153 135.48727 6735 ft 260 kts 65°
2026-04-24 12:27 34.79628 135.50856 7700 ft 268 kts 83°
2026-04-24 12:27 34.79605 135.53116 8684 ft 274 kts 92°
2026-04-24 12:28 34.79436 135.55431 9604 ft 281 kts 93°
2026-04-24 12:28 34.79274 135.57790 10467 ft 289 kts 92°
2026-04-24 12:28 34.79140 135.60307 11073 ft 306 kts 91°
2026-04-24 12:28 34.79026 135.62955 11643 ft 323 kts 91°
2026-04-24 12:29 34.78912 135.65765 12229 ft 340 kts 91°
2026-04-24 12:29 34.78794 135.68715 12788 ft 356 kts 91°
2026-04-24 12:29 34.78746 135.71744 13505 ft 364 kts 86°
2026-04-24 12:29 34.79127 135.74786 14201 ft 371 kts 75°
2026-04-24 12:30 34.79929 135.77789 14874 ft 380 kts 69°
2026-04-24 12:30 34.80922 135.80821 15491 ft 390 kts 66°
2026-04-24 12:30 34.81965 135.83864 16076 ft 400 kts 66°
2026-04-24 12:30 34.83030 135.87024 16697 ft 409 kts 67°
2026-04-24 12:31 34.84081 135.90254 17365 ft 416 kts 68°
2026-04-24 12:31 34.85126 135.93559 17919 ft 426 kts 68°
2026-04-24 12:31 34.86186 135.96976 18553 ft 434 kts 69°
2026-04-24 12:31 34.87243 136.00423 19335 ft 437 kts 69°
2026-04-24 12:32 34.88297 136.03871 20060 ft 441 kts 69°
2026-04-24 12:32 34.89377 136.07408 20727 ft 447 kts 69°
2026-04-24 12:32 34.90465 136.10969 21422 ft 452 kts 69°
2026-04-24 12:32 34.91549 136.14523 22113 ft 456 kts 69°
2026-04-24 12:33 34.92657 136.18161 22786 ft 460 kts 70°
2026-04-24 12:33 34.93777 136.21845 23364 ft 466 kts 70°
2026-04-24 12:33 34.94892 136.25517 23866 ft 473 kts 70°
2026-04-24 12:33 34.96043 136.29309 24276 ft 482 kts 70°
2026-04-24 12:34 34.97214 136.33177 24673 ft 492 kts 70°
2026-04-24 12:34 34.98416 136.37146 25190 ft 498 kts 70°
2026-04-24 12:34 34.99640 136.41132 25598 ft 506 kts 69°
2026-04-24 12:34 35.01006 136.45158 26046 ft 513 kts 65°
2026-04-24 12:35 35.02634 136.49052 26490 ft 520 kts 59°
2026-04-24 12:35 35.04526 136.52838 26971 ft 525 kts 54°
2026-04-24 12:35 35.06603 136.56606 27282 ft 535 kts 53°
2026-04-24 12:35 35.08767 136.60341 27808 ft 538 kts 52°
2026-04-24 12:36 35.10964 136.64078 28258 ft 543 kts 51°
2026-04-24 12:36 35.13181 136.67854 28568 ft 552 kts 52°
2026-04-24 12:36 35.15415 136.71696 28947 ft 558 kts 52°
2026-04-24 12:36 35.17630 136.75549 29290 ft 564 kts 52°
2026-04-24 12:37 35.19899 136.79540 29624 ft 570 kts 52°
2026-04-24 12:37 35.22163 136.83534 30151 ft 572 kts 52°
2026-04-24 12:37 35.24479 136.87442 30521 ft 576 kts 49°
2026-04-24 12:37 35.27018 136.91235 30824 ft 578 kts 44°
2026-04-24 12:38 35.29813 136.94757 31219 ft 577 kts 38°
2026-04-24 12:38 35.32865 136.98003 31472 ft 579 kts 32°
2026-04-24 12:38 35.36078 137.00854 31958 ft 574 kts 26°
2026-04-24 12:39 35.46430 137.08246 33330 ft 572 kts 21°
2026-04-24 12:39 35.49815 137.10641 34293 ft 561 kts 22°
2026-04-24 12:39 35.53160 137.13109 35127 ft 554 kts 23°
2026-04-24 12:40 35.56363 137.15572 36111 ft 543 kts 23°
2026-04-24 12:40 35.59527 137.18066 36616 ft 542 kts 24°
2026-04-24 12:40 35.62704 137.20610 36838 ft 547 kts 24°
2026-04-24 12:40 35.65877 137.23171 36952 ft 555 kts 25°
2026-04-24 12:41 35.69145 137.25822 37265 ft 557 kts 25°
2026-04-24 12:41 35.72437 137.28511 37608 ft 559 kts 25°
2026-04-24 12:41 35.75750 137.31221 37916 ft 561 kts 25°
2026-04-24 12:41 35.79094 137.33963 38301 ft 561 kts 25°
2026-04-24 12:42 35.82349 137.36641 38905 ft 555 kts 25°
2026-04-24 12:42 35.85576 137.39296 39054 ft 553 kts 25°
2026-04-24 12:42 35.88816 137.41956 39076 ft 556 kts 24°
2026-04-24 12:43 35.95233 137.47217 39079 ft 554 kts 25°
2026-04-24 12:43 36.01686 137.52510 39087 ft 552 kts 24°
2026-04-24 12:44 36.08149 137.57826 39093 ft 551 kts 25°
2026-04-24 12:44 36.14539 137.63089 39095 ft 552 kts 25°
2026-04-24 12:45 36.20946 137.68372 39105 ft 551 kts 25°
2026-04-24 12:45 36.27304 137.73633 39127 ft 549 kts 25°
2026-04-24 12:46 36.33671 137.78912 39122 ft 550 kts 25°
2026-04-24 12:46 36.40027 137.84184 39108 ft 549 kts 25°
2026-04-24 12:47 36.46359 137.89462 39106 ft 551 kts 25°
2026-04-24 12:47 36.52773 137.94754 39110 ft 546 kts 25°
2026-04-24 12:48 36.59138 137.99858 39114 ft 543 kts 24°
2026-04-24 12:48 36.65522 138.04930 39114 ft 546 kts 24°
2026-04-24 12:49 36.71955 138.10078 39113 ft 543 kts 24°
2026-04-24 12:49 36.78366 138.15240 39126 ft 543 kts 24°
2026-04-24 12:50 36.84771 138.20415 39145 ft 543 kts 24°
2026-04-24 12:50 36.91032 138.25496 39160 ft 541 kts 24°
2026-04-24 12:51 36.97424 138.30684 39166 ft 543 kts 24°
2026-04-24 12:51 37.03746 138.35829 39164 ft 540 kts 24°
2026-04-24 12:52 37.10082 138.40999 39164 ft 540 kts 24°
2026-04-24 12:52 37.16456 138.46202 39171 ft 543 kts 24°
2026-04-24 12:53 37.22839 138.51424 39167 ft 540 kts 24°
2026-04-24 12:53 37.29110 138.56564 39176 ft 538 kts 24°
2026-04-24 12:54 37.35376 138.61675 39167 ft 538 kts 24°
2026-04-24 12:54 37.41638 138.66774 39173 ft 537 kts 25°
2026-04-24 12:55 37.47908 138.71892 39171 ft 540 kts 25°
2026-04-24 12:55 37.51042 138.74466 39172 ft 526 kts 25°
2026-04-24 12:55 37.54050 138.76956 39177 ft 514 kts 25°
2026-04-24 12:56 37.59987 138.81850 39172 ft 512 kts 24°
2026-04-24 12:56 37.66006 138.86775 39169 ft 517 kts 25°
2026-04-24 12:57 37.72017 138.91719 39161 ft 514 kts 24°
2026-04-24 12:57 37.74976 138.94168 38888 ft 508 kts 24°
2026-04-24 12:57 37.77915 138.96603 38244 ft 509 kts 24°
2026-04-24 12:57 37.80888 138.99066 37851 ft 502 kts 25°
2026-04-24 12:58 37.83790 139.01477 37454 ft 496 kts 24°
2026-04-24 12:58 37.86685 139.03882 36914 ft 494 kts 24°
2026-04-24 12:58 37.89559 139.06268 36290 ft 493 kts 25°
2026-04-24 12:58 37.92408 139.08632 35621 ft 493 kts 25°
2026-04-24 12:59 37.95267 139.10953 35079 ft 491 kts 22°
2026-04-24 12:59 37.98235 139.13118 34385 ft 489 kts 19°
2026-04-24 12:59 38.01209 139.15096 33862 ft 484 kts 18°
2026-04-24 12:59 38.04194 139.17001 33312 ft 483 kts 18°
2026-04-24 13:00 38.07170 139.19047 32789 ft 483 kts 22°
2026-04-24 13:00 38.10002 139.21242 32403 ft 479 kts 25°
2026-04-24 13:00 38.12780 139.23544 31993 ft 474 kts 26°
2026-04-24 13:00 38.15538 139.25906 31570 ft 468 kts 27°
2026-04-24 13:01 38.18183 139.28195 31232 ft 460 kts 27°
2026-04-24 13:01 38.20630 139.30313 30835 ft 455 kts 27°
2026-04-24 13:01 38.23234 139.32561 30375 ft 450 kts 27°
2026-04-24 13:01 38.25800 139.34767 29937 ft 444 kts 27°
2026-04-24 13:02 38.28331 139.36932 29377 ft 442 kts 27°
2026-04-24 13:02 38.30889 139.39111 28529 ft 446 kts 27°
2026-04-24 13:02 38.33477 139.41309 27675 ft 450 kts 27°
2026-04-24 13:02 38.36063 139.43501 26900 ft 451 kts 27°
2026-04-24 13:03 38.38696 139.45737 26348 ft 451 kts 27°
2026-04-24 13:03 38.41268 139.47923 25835 ft 451 kts 27°
2026-04-24 13:03 38.43872 139.50140 25289 ft 453 kts 27°
2026-04-24 13:03 38.46554 139.52414 24514 ft 473 kts 28°
2026-04-24 13:04 38.49301 139.54746 23653 ft 475 kts 28°
2026-04-24 13:04 38.52043 139.57083 22796 ft 472 kts 28°
2026-04-24 13:04 38.54751 139.59402 21930 ft 468 kts 28°
2026-04-24 13:04 38.57421 139.61693 21117 ft 463 kts 28°
2026-04-24 13:05 38.60071 139.63969 20373 ft 456 kts 28°
2026-04-24 13:05 38.62677 139.66209 19676 ft 448 kts 29°
2026-04-24 13:05 38.65216 139.68396 19162 ft 435 kts 29°
2026-04-24 13:05 38.67686 139.70525 18663 ft 424 kts 28°
2026-04-24 13:06 38.70124 139.72624 18084 ft 418 kts 28°
2026-04-24 13:06 38.72513 139.74680 17478 ft 413 kts 28°
2026-04-24 13:06 38.74876 139.76710 16872 ft 407 kts 29°
2026-04-24 13:06 38.77192 139.78703 16267 ft 402 kts 29°
2026-04-24 13:07 38.79500 139.80690 15652 ft 395 kts 29°
2026-04-24 13:07 38.81728 139.82611 15099 ft 386 kts 29°
2026-04-24 13:07 38.83936 139.84518 14611 ft 376 kts 29°
2026-04-24 13:07 38.86080 139.86371 14113 ft 366 kts 29°
2026-04-24 13:08 38.88168 139.88176 13613 ft 358 kts 29°
2026-04-24 13:08 38.90198 139.89931 13283 ft 346 kts 29°
2026-04-24 13:08 38.92138 139.91611 13065 ft 332 kts 29°
2026-04-24 13:09 38.95820 139.94803 12567 ft 308 kts 29°
2026-04-24 13:09 38.97566 139.96315 12303 ft 300 kts 29°
2026-04-24 13:09 38.99322 139.97830 12070 ft 309 kts 29°
2026-04-24 13:09 39.01130 139.99387 11825 ft 312 kts 29°
2026-04-24 13:10 39.02909 140.00932 11636 ft 302 kts 29°
2026-04-24 13:10 39.04611 140.02420 11487 ft 289 kts 29°
2026-04-24 13:10 39.06237 140.03839 11340 ft 283 kts 29°
2026-04-24 13:10 39.07869 140.05257 11191 ft 281 kts 28°
2026-04-24 13:11 39.09453 140.06638 11037 ft 269 kts 28°
2026-04-24 13:11 39.10986 140.07976 10798 ft 266 kts 28°
2026-04-24 13:11 39.12524 140.09309 10366 ft 268 kts 28°
2026-04-24 13:11 39.14066 140.10652 10127 ft 260 kts 28°
2026-04-24 13:12 39.15531 140.11932 9886 ft 254 kts 29°
2026-04-24 13:12 39.16984 140.13203 9632 ft 248 kts 29°
2026-04-24 13:12 39.18396 140.14436 9379 ft 242 kts 29°
2026-04-24 13:12 39.19763 140.15628 9129 ft 238 kts 29°
2026-04-24 13:13 39.21134 140.16826 8882 ft 233 kts 29°
2026-04-24 13:13 39.22442 140.17972 8716 ft 225 kts 29°
2026-04-24 13:13 39.23734 140.19102 8565 ft 224 kts 29°
2026-04-24 13:13 39.25035 140.20235 8414 ft 227 kts 29°
2026-04-24 13:14 39.26331 140.21370 8278 ft 220 kts 30°
2026-04-24 13:14 39.27570 140.22461 8168 ft 210 kts 29°
2026-04-24 13:14 39.28775 140.23424 8035 ft 202 kts 21°
2026-04-24 13:14 39.30097 140.23978 7710 ft 202 kts
2026-04-24 13:15 39.31476 140.24356 7366 ft 201 kts
2026-04-24 13:15 39.32816 140.24756 7088 ft 198 kts 11°
2026-04-24 13:15 39.34152 140.25188 6813 ft 196 kts 11°
2026-04-24 13:15 39.35479 140.25627 6538 ft 196 kts 12°
2026-04-24 13:16 39.36778 140.26057 6266 ft 194 kts 12°
2026-04-24 13:16 39.38092 140.26489 5991 ft 195 kts 12°
2026-04-24 13:16 39.39409 140.26923 5714 ft 193 kts 12°
2026-04-24 13:16 39.40717 140.27354 5440 ft 194 kts 12°
2026-04-24 13:17 39.42014 140.27783 5169 ft 191 kts 12°
2026-04-24 13:17 39.43288 140.28204 4911 ft 189 kts 12°
2026-04-24 13:17 39.44551 140.28621 4657 ft 184 kts 13°
2026-04-24 13:17 39.45775 140.29025 4393 ft 181 kts 13°
2026-04-24 13:18 39.46996 140.29428 4134 ft 178 kts 13°
2026-04-24 13:18 39.48178 140.29819 3890 ft 174 kts 13°
2026-04-24 13:18 39.49342 140.30203 3654 ft 171 kts 13°
2026-04-24 13:18 39.50491 140.30583 3412 ft 169 kts 13°
2026-04-24 13:19 39.51620 140.30957 3171 ft 166 kts 13°
2026-04-24 13:19 39.52719 140.31322 2983 ft 161 kts 13°
2026-04-24 13:19 39.53806 140.31682 2740 ft 159 kts 13°
2026-04-24 13:19 39.54861 140.32031 2518 ft 157 kts 13°
2026-04-24 13:20 39.55902 140.32355 2350 ft 151 kts
2026-04-24 13:20 39.56931 140.32405 2137 ft 142 kts 353°
2026-04-24 13:20 39.57874 140.32140 1941 ft 137 kts 343°
2026-04-24 13:20 39.58754 140.31705 1741 ft 136 kts 335°
2026-04-24 13:21 39.59533 140.31100 1663 ft 123 kts 321°
2026-04-24 13:21 39.60120 140.30255 1511 ft 129 kts 304°
2026-04-24 13:21 39.60558 140.29211 1330 ft 133 kts 296°
2026-04-24 13:21 39.60922 140.28119 1117 ft 129 kts 293°
2026-04-24 13:22 39.61120 140.27005 949 ft 129 kts 277°
2026-04-24 13:22 39.61207 140.25836 769 ft 129 kts 277°
2026-04-24 13:22 39.61308 140.24707 606 ft 125 kts 277°
2026-04-24 13:22 39.61410 140.23583 410 ft 126 kts 277°
2026-04-24 13:23 39.61506 140.22496 316 ft 113 kts 276°
2026-04-24 13:23 39.61578 140.21722 311 ft 61 kts 276°
2026-04-24 13:23 39.61616 140.21295 305 ft 33 kts 276°
2026-04-24 13:23 39.61633 140.21085 302 ft 15 kts 267°
2026-04-24 13:24 39.61562 140.21007 301 ft 14 kts 188°
2026-04-24 13:24 39.61472 140.21048 301 ft 14 kts 108°
2026-04-24 13:24 39.61459 140.21170 304 ft 12 kts 97°
2026-04-24 13:24 39.61449 140.21277 306 ft 11 kts 97°
2026-04-24 13:25 39.61440 140.21374 307 ft 10 kts 96°
2026-04-24 13:25 39.61430 140.21493 309 ft 18 kts 96°
2026-04-24 13:25 39.61412 140.21703 311 ft 26 kts 96°
2026-04-24 13:25 39.61391 140.21910 314 ft 8 kts 96°
2026-04-24 13:26 39.61357 140.21936 315 ft 6 kts 193°
2026-04-24 13:26 39.61299 140.21927 317 ft 11 kts 187°
2026-04-24 13:26 39.61253 140.21919 318 ft 2 kts 185°
2026-04-24 13:26 39.61247 140.21919 318 ft 0 kts 185°